User: anonymous   Login
Location: Unspecified
(0.0000°N, 0.0000°E)
Time: 11:17:16
(UTC+00:00)
Language:

INTEGRAL - Orbit

View from above orbital plane
View from above orbital plane
View from above satellite
View from above satellite

Ground track
Ground track

The orbit data is extracted from the following two-line orbital elements,

1 27540U 02048A   18021.95176032  .00001031  00000-0  00000+0 0  9991
2 27540  49.0858 177.2232 8411146 265.1664   0.4650  0.37581520 15128
Epoch (UTC): 21 January 2018 22:50:32
Eccentricity: 0.8411146
inclination: 49.0858°
perigee height: 6509 km
apogee height: 142957 km
right ascension of ascending node: 177.2232°
argument of perigee: 265.1664°
revolutions per day: 0.37581520
mean anomaly at epoch: 0.4650°
orbit number at epoch: 1512

The dashed part of the orbit path shows where the satellite is in the earth's shadow,  

DLR